Tokyo, Japan

6:28 PM JST on July 21, 2017 (GMT +0900)
Tokyo (Haneda) International

Weather History for RJTT - December, 2012

Change the Weather History Date:

Thursday, December 6, 2012

  Actual Average Record
Temperature  
Mean Temperature 55 °F -  
Max Temperature 64 °F 50 °F 64 °F (1996)
Min Temperature 46 °F 39 °F 37 °F (2014)
Degree Days  
Heating Degree Days 10    
Growing Degree Days 5 (Base 50)    
Moisture  
Dew Point 33 °F    
Average Humidity 48    
Maximum Humidity 82    
Minimum Humidity 22    
Precipitation  
Precipitation 0.00 in - - ()
Sea Level Pressure  
Sea Level Pressure 29.77 in    
Wind  
Wind Speed 18 mph ()    
Max Wind Speed 29 mph    
Max Gust Speed 39 mph    
Visibility 6.2 miles    
Events Rain    
Averages and records for this station are not official NWS values.
T = Trace of Precipitation, MM = Missing Value Source: Averaged Metar Reports

Daily Weather History Graph

Daily Weather History Graph

Search for Another Location

Airport or City:

Trip Planner

Search our weather history database for the weather conditions in past years. The results will help you decide how hot, cold, wet, or windy it might be!

Date:

Astronomy

Dec. 06, 2012 Rise Set
Actual Time 6:36 AM JST 4:27 PM JST
Civil Twilight 6:07 AM JST 4:55 PM JST
Nautical Twilight 5:36 AM JST 5:27 PM JST
Astronomical Twilight 5:05 AM JST 5:58 PM JST
Moon 11:28 PM JST (12/6) 11:20 AM JST (12/6)
Length of Visible Light 10h 47m
Length of Day
9h 51m
Waning Gibbous, 55% of the Moon is Illuminated
Dec 6
Waning Gibbous
Dec 7
Last Quarter
Dec 13
New
Dec 20
First Quarter
Dec 28
Full

Hourly Weather History & Observations

Time (JST) Temp. Windchill Dew Point Humidity Pressure Visibility Wind Dir Wind Speed Gust Speed Precip Events Conditions
12:00 AM 51.8 °F - 35.6 °F 54% 29.89 in 6.2 mi SW 16.1 mph - N/A   Scattered Clouds
12:30 AM 51.8 °F - 33.8 °F 50% 29.89 in 6.2 mi SW 18.4 mph - N/A   Scattered Clouds
12:49 AM 51.8 °F - 33.8 °F 50% 29.86 in 6.2 mi SW 17.3 mph 28.8 mph N/A   Scattered Clouds
1:00 AM 51.8 °F - 33.8 °F 50% 29.86 in 6.2 mi SW 18.4 mph - N/A   Scattered Clouds
1:30 AM 51.8 °F - 35.6 °F 54% 29.86 in 6.2 mi SSW 20.7 mph - N/A   Partly Cloudy
1:32 AM 51.8 °F - 37.4 °F 58% 29.86 in 6.2 mi SSW 19.6 mph 31.1 mph N/A   Partly Cloudy
2:00 AM 51.8 °F - 37.4 °F 58% 29.86 in 6.2 mi SSW 16.1 mph - N/A   Partly Cloudy
2:30 AM 50.0 °F - 37.4 °F 62% 29.86 in 6.2 mi SSW 17.3 mph - N/A   Scattered Clouds
3:00 AM 50.0 °F - 39.2 °F 66% 29.83 in 6.2 mi SW 23.0 mph - N/A   Scattered Clouds
3:30 AM 50.0 °F - 39.2 °F 66% 29.83 in 6.2 mi SW 20.7 mph - N/A   Scattered Clouds
3:38 AM 51.8 °F - 39.2 °F 62% 29.83 in 6.2 mi SW 20.7 mph 34.5 mph N/A Rain Light Rain
4:00 AM 50.0 °F - 41.0 °F 71% 29.80 in 6.2 mi SW 18.4 mph - N/A Rain Light Rain
4:30 AM 50.0 °F - 41.0 °F 71% 29.77 in 6.2 mi SSW 17.3 mph - N/A   Partly Cloudy
5:00 AM 50.0 °F - 42.8 °F 76% 29.77 in 6.2 mi SSW 18.4 mph - N/A Rain Rain
5:12 AM 50.0 °F - 44.6 °F 82% 29.77 in 6.2 mi SSW 16.1 mph - N/A Rain Light Rain
5:30 AM 50.0 °F - 44.6 °F 82% 29.74 in 6.2 mi SSW 17.3 mph - N/A   Partly Cloudy
6:00 AM 51.8 °F - 46.4 °F 82% 29.74 in 6.2 mi SSW 13.8 mph - N/A   Partly Cloudy
6:30 AM 53.6 °F - 48.2 °F 82% 29.71 in 6.2 mi SSW 16.1 mph - N/A   Partly Cloudy
6:37 AM 53.6 °F - 48.2 °F 82% 29.71 in 6.2 mi SSW 17.3 mph 28.8 mph N/A   Partly Cloudy
7:00 AM 53.6 °F - 48.2 °F 82% 29.71 in 6.2 mi SW 16.1 mph - N/A   Partly Cloudy
7:30 AM 51.8 °F - 46.4 °F 82% 29.71 in 6.2 mi SW 11.5 mph - N/A   Partly Cloudy
8:00 AM 51.8 °F - 46.4 °F 82% 29.71 in 6.2 mi SW 16.1 mph - N/A   Mostly Cloudy
8:30 AM 55.4 °F - 48.2 °F 77% 29.68 in 6.2 mi SW 21.9 mph - N/A   Partly Cloudy
8:43 AM 55.4 °F - 48.2 °F 77% 29.68 in 6.2 mi SSW 20.7 mph 32.2 mph N/A   Partly Cloudy
9:00 AM 57.2 °F - 46.4 °F 67% 29.68 in 6.2 mi SSW 24.2 mph - N/A   Partly Cloudy
9:04 AM 57.2 °F - 46.4 °F 67% 29.68 in 6.2 mi SSW 24.2 mph 35.7 mph N/A   Partly Cloudy
9:30 AM 59.0 °F - 44.6 °F 59% 29.65 in 6.2 mi SW 25.3 mph - N/A   Partly Cloudy
9:37 AM 59.0 °F - 44.6 °F 59% 29.65 in 6.2 mi SW 21.9 mph 33.4 mph N/A   Partly Cloudy
10:00 AM 60.8 °F - 39.2 °F 45% 29.65 in 6.2 mi SW 28.8 mph - N/A   Partly Cloudy
10:01 AM 60.8 °F - 39.2 °F 45% 29.65 in 6.2 mi SW 27.6 mph 39.1 mph N/A   Partly Cloudy
10:30 AM 60.8 °F - 42.8 °F 52% 29.65 in 6.2 mi SW 24.2 mph - N/A   Partly Cloudy
10:32 AM 60.8 °F - 41.0 °F 48% 29.65 in 6.2 mi SW 24.2 mph 36.8 mph N/A   Partly Cloudy
11:00 AM 60.8 °F - 37.4 °F 42% 29.65 in 6.2 mi SW 24.2 mph - N/A   Partly Cloudy
11:13 AM 60.8 °F - 35.6 °F 39% 29.65 in 6.2 mi SW 24.2 mph 36.8 mph N/A   Partly Cloudy
11:30 AM 62.6 °F - 32.0 °F 32% 29.65 in 6.2 mi SW 25.3 mph - N/A   Partly Cloudy
11:33 AM 62.6 °F - 32.0 °F 32% 29.65 in 6.2 mi SW 24.2 mph 35.7 mph N/A   Partly Cloudy
12:00 PM 62.6 °F - 32.0 °F 32% 29.65 in 6.2 mi SW 21.9 mph - N/A   Partly Cloudy
12:15 PM 62.6 °F - 28.4 °F 27% 29.62 in 6.2 mi SW 20.7 mph 33.4 mph N/A   Partly Cloudy
12:30 PM 62.6 °F - 26.6 °F 26% 29.65 in 6.2 mi WSW 26.5 mph 38.0 mph N/A   Partly Cloudy
1:00 PM 62.6 °F - 26.6 °F 26% 29.65 in 6.2 mi WSW 25.3 mph - N/A   Partly Cloudy
1:30 PM 62.6 °F - 23.0 °F 22% 29.65 in 6.2 mi WSW 23.0 mph - N/A   Partly Cloudy
2:00 PM 64.4 °F - 24.8 °F 22% 29.65 in 6.2 mi WSW 15.0 mph - N/A   Partly Cloudy
2:30 PM 62.6 °F - 24.8 °F 24% 29.68 in 6.2 mi SW 17.3 mph - N/A   Partly Cloudy
3:00 PM 62.6 °F - 26.6 °F 26% 29.71 in 6.2 mi SW 15.0 mph - N/A   Partly Cloudy
3:30 PM 60.8 °F - 26.6 °F 27% 29.71 in 6.2 mi West 9.2 mph - N/A   Partly Cloudy
3:43 PM 59.0 °F - 26.6 °F 29% 29.74 in 6.2 mi North 11.5 mph - N/A   Partly Cloudy
4:00 PM 57.2 °F - 26.6 °F 31% 29.74 in 6.2 mi NNW 16.1 mph - N/A   Partly Cloudy
4:30 PM 53.6 °F - 17.6 °F 24% 29.77 in 6.2 mi NNW 18.4 mph - N/A   Partly Cloudy
5:00 PM 51.8 °F - 19.4 °F 28% 29.80 in 6.2 mi NNW 17.3 mph - N/A   Partly Cloudy
5:30 PM 51.8 °F - 17.6 °F 26% 29.80 in 6.2 mi NNW 17.3 mph - N/A   Partly Cloudy
5:46 PM 51.8 °F - 17.6 °F 26% 29.80 in - NNW 18.4 mph 29.9 mph N/A   Clear
6:00 PM 51.8 °F - 17.6 °F 26% 29.83 in - NNW 21.9 mph - N/A   Clear
6:30 PM 51.8 °F - 19.4 °F 28% 29.86 in - NNW 21.9 mph - N/A   Clear
7:00 PM 50.0 °F - 19.4 °F 30% 29.86 in - NNW 20.7 mph - N/A   Clear
7:30 PM 50.0 °F - 17.6 °F 28% 29.89 in - NNW 17.3 mph - N/A   Clear
8:00 PM 50.0 °F - 17.6 °F 28% 29.92 in - NNW 18.4 mph - N/A   Clear
8:30 PM 48.2 °F - 17.6 °F 30% 29.92 in - NNW 17.3 mph - N/A   Clear
9:00 PM 48.2 °F - 19.4 °F 32% 29.92 in - NNW 16.1 mph - N/A   Clear
9:30 PM 48.2 °F - 17.6 °F 30% 29.92 in - NNW 13.8 mph - N/A   Clear
10:00 PM 46.4 °F 39.5 °F 19.4 °F 34% 29.95 in - NNW 17.3 mph - N/A   Clear
10:30 PM 46.4 °F 40.1 °F 21.2 °F 37% 29.95 in - NNW 15.0 mph - N/A   Clear
11:00 PM 48.2 °F - 24.8 °F 40% 29.95 in - North 19.6 mph - N/A   Clear
11:30 PM 46.4 °F 39.0 °F 21.2 °F 37% 29.95 in - NNW 19.6 mph - N/A   Clear